Weather History for KCVX - June, 2013

Change the Weather History Date:

Friday, June 28, 2013

  Actual Average Record
Temperature  
Mean Temperature 64 °F -  
Max Temperature 71 °F 72 °F 90 °F (2014)
Min Temperature 58 °F 58 °F 51 °F (2003)
Growing Degree Days 14 (Base 50)    
Moisture  
Dew Point 62 °F    
Average Humidity 90    
Maximum Humidity 100    
Minimum Humidity 74    
Precipitation  
Precipitation 0.00 in - - ()
Sea Level Pressure  
Sea Level Pressure 29.66 in    
Wind  
Wind Speed 5 mph (NNW)    
Max Wind Speed 16 mph    
Max Gust Speed 21 mph    
Visibility 10 miles    
Events      
Averages and records for this station are not official NWS values.
T = Trace of Precipitation, MM = Missing Value Source: NWS Daily Summary

Daily Weather History Graph

Daily Weather History Graph

Search for Another Location

Airport or City:

Trip Planner

Search our weather history database for the weather conditions in past years. The results will help you decide how hot, cold, wet, or windy it might be!

Date:

Astronomy

Jun. 28, 2013 Rise Set
Actual Time 5:55 AM EDT 9:33 PM EDT
Civil Twilight 5:17 AM EDT 10:10 PM EDT
Nautical Twilight 4:27 AM EDT 11:00 PM EDT
Astronomical Twilight 3:20 AM EDT 12:07 AM EDT
Moon 12:13 AM EDT (6/28) 12:20 PM EDT (6/28)
Length of Visible Light 16h 52m
Length of Day
15h 37m
Waning Gibbous, 66% of the Moon is Illuminated
Jun 28
Waning Gibbous
Jun 30
Last Quarter
Jul 8
New
Jul 15
First Quarter
Jul 22
Full

Hourly Weather History & Observations

Time (EDT) Temp. Dew Point Humidity Pressure Visibility Wind Dir Wind Speed Gust Speed Precip Events Conditions
12:14 AM 60.8 °F 60.3 °F 98% 29.70 in 10.0 mi West 3.5 mph - N/A   Clear
12:34 AM 60.4 °F 59.9 °F 98% 29.70 in 10.0 mi West 3.5 mph - N/A   Clear
12:54 AM 60.1 °F 59.9 °F 99% 29.70 in 10.0 mi Calm Calm - N/A   Clear
1:14 AM 59.0 °F 58.8 °F 99% 29.70 in 10.0 mi WSW 3.5 mph - N/A   Clear
1:35 AM 59.2 °F 59.2 °F 100% 29.70 in 10.0 mi West 3.5 mph - N/A   Clear
1:54 AM 60.1 °F 59.9 °F 99% 29.69 in 10.0 mi West 3.5 mph - N/A   Clear
2:35 AM 59.2 °F 59.0 °F 99% 29.69 in 10.0 mi Calm Calm - N/A   Clear
2:54 AM 59.0 °F 59.0 °F 100% 29.68 in 10.0 mi Calm Calm - N/A   Scattered Clouds
3:14 AM 58.8 °F 58.6 °F 99% 29.69 in 10.0 mi Calm Calm - N/A   Clear
3:34 AM 58.5 °F 58.5 °F 100% 29.68 in 10.0 mi WSW 4.6 mph - N/A   Scattered Clouds
3:54 AM 58.5 °F 58.5 °F 100% 29.68 in 10.0 mi West 5.8 mph - N/A   Scattered Clouds
4:14 AM 58.1 °F 58.1 °F 100% 29.68 in 10.0 mi West 5.8 mph - N/A   Clear
4:34 AM 58.1 °F 58.1 °F 100% 29.68 in 10.0 mi WNW 4.6 mph - N/A   Clear
4:54 AM 58.1 °F 58.1 °F 100% 29.67 in 10.0 mi West 4.6 mph - N/A   Clear
5:14 AM 58.6 °F 58.6 °F 100% 29.67 in 10.0 mi Calm Calm - N/A   Mostly Cloudy
5:34 AM 58.8 °F 58.8 °F 100% 29.66 in 10.0 mi WSW 3.5 mph - N/A   Mostly Cloudy
5:54 AM 59.0 °F 59.0 °F 100% 29.66 in 10.0 mi Calm Calm - N/A   Scattered Clouds
6:15 AM 59.0 °F 59.0 °F 100% 29.65 in 10.0 mi West 3.5 mph - N/A   Mostly Cloudy
6:34 AM 60.3 °F 60.3 °F 100% 29.65 in 10.0 mi Calm Calm - N/A   Scattered Clouds
6:54 AM 61.2 °F 60.8 °F 99% 29.65 in 10.0 mi Calm Calm - N/A   Scattered Clouds
7:15 AM 61.7 °F 60.8 °F 97% 29.65 in 10.0 mi Calm Calm - N/A   Clear
7:34 AM 61.7 °F 60.8 °F 97% 29.66 in 10.0 mi Calm Calm - N/A   Clear
7:54 AM 62.8 °F 61.3 °F 95% 29.66 in 10.0 mi West 5.8 mph - N/A   Mostly Cloudy
8:14 AM 64.6 °F 62.2 °F 92% 29.66 in 10.0 mi West 8.1 mph - N/A   Mostly Cloudy
8:34 AM 63.0 °F 61.5 °F 95% 29.66 in 10.0 mi Calm Calm - N/A   Overcast
8:54 AM 63.3 °F 62.2 °F 96% 29.65 in 10.0 mi Calm Calm - N/A   Overcast
9:14 AM 64.0 °F 62.4 °F 94% 29.65 in 10.0 mi Calm Calm - N/A   Overcast
9:34 AM 65.8 °F 63.0 °F 90% 29.64 in 10.0 mi NE 6.9 mph - N/A   Mostly Cloudy
9:54 AM 66.2 °F 63.3 °F 90% 29.65 in 10.0 mi North 5.8 mph - N/A   Mostly Cloudy
10:14 AM 66.6 °F 63.5 °F 90% 29.65 in 10.0 mi North 8.1 mph - N/A   Overcast
10:34 AM 67.8 °F 63.9 °F 87% 29.65 in 10.0 mi North 8.1 mph - N/A   Overcast
10:54 AM 67.1 °F 63.1 °F 87% 29.65 in 10.0 mi North 8.1 mph - N/A   Overcast
11:14 AM 67.6 °F 63.3 °F 86% 29.65 in 10.0 mi North 8.1 mph - N/A   Overcast
11:34 AM 68.2 °F 63.7 °F 85% 29.64 in 10.0 mi North 6.9 mph - N/A   Mostly Cloudy
11:54 AM 68.5 °F 64.2 °F 86% 29.64 in 10.0 mi NNW 8.1 mph - N/A   Overcast
12:14 PM 67.8 °F 64.0 °F 88% 29.64 in 10.0 mi NNW 8.1 mph - N/A   Scattered Clouds
12:35 PM 69.6 °F 64.6 °F 84% 29.64 in 10.0 mi NNW 8.1 mph - N/A   Clear
12:54 PM 68.9 °F 64.2 °F 85% 29.64 in 10.0 mi NNW 8.1 mph - N/A   Scattered Clouds
1:14 PM 69.8 °F 63.9 °F 81% 29.65 in 10.0 mi NNW 8.1 mph - N/A   Scattered Clouds
1:35 PM 68.2 °F 62.8 °F 83% 29.64 in 10.0 mi NNW 8.1 mph - N/A   Mostly Cloudy
1:54 PM 69.4 °F 63.3 °F 81% 29.64 in 10.0 mi North 8.1 mph - N/A   Scattered Clouds
2:14 PM 69.6 °F 63.3 °F 80% 29.64 in 10.0 mi North 10.4 mph - N/A   Clear
2:35 PM 69.8 °F 63.3 °F 80% 29.64 in 10.0 mi NNW 9.2 mph - N/A   Clear
2:54 PM 69.6 °F 63.1 °F 80% 29.64 in 10.0 mi North 8.1 mph - N/A   Clear
3:14 PM 68.9 °F 63.3 °F 82% 29.64 in 10.0 mi NNW 6.9 mph - N/A   Clear
3:34 PM 69.6 °F 62.6 °F 78% 29.63 in 10.0 mi NNW 9.2 mph - N/A   Clear
3:54 PM 71.2 °F 63.5 °F 76% 29.63 in 10.0 mi North 9.2 mph - N/A   Clear
4:14 PM 71.8 °F 63.1 °F 74% 29.63 in 10.0 mi NNW 8.1 mph - N/A   Clear
4:34 PM 70.2 °F 63.0 °F 78% 29.63 in 10.0 mi NNW 9.2 mph - N/A   Clear
4:54 PM 70.0 °F 63.3 °F 79% 29.63 in 10.0 mi NW 10.4 mph - N/A   Clear
5:14 PM 69.8 °F 63.0 °F 79% 29.63 in 10.0 mi NW 10.4 mph - N/A   Scattered Clouds
5:34 PM 68.0 °F 62.8 °F 83% 29.64 in 10.0 mi NW 9.2 mph - N/A   Scattered Clouds
5:54 PM 67.8 °F 62.6 °F 83% 29.64 in 10.0 mi NW 10.4 mph 16.1 mph N/A   Scattered Clouds
6:15 PM 67.6 °F 62.8 °F 84% 29.64 in 10.0 mi NNW 5.8 mph - N/A   Scattered Clouds
6:34 PM 68.5 °F 63.0 °F 82% 29.64 in 10.0 mi North 10.4 mph - N/A   Mostly Cloudy
6:54 PM 67.6 °F 62.8 °F 84% 29.65 in 10.0 mi North 12.7 mph 18.4 mph N/A   Overcast
7:15 PM 68.4 °F 62.8 °F 82% 29.65 in 10.0 mi North 16.1 mph 20.7 mph N/A   Mostly Cloudy
7:34 PM 68.0 °F 63.3 °F 85% 29.65 in 10.0 mi North 13.8 mph 20.7 mph N/A   Overcast
7:54 PM 66.0 °F 63.7 °F 92% 29.65 in 10.0 mi NNE 9.2 mph - N/A   Overcast
8:15 PM 67.1 °F 63.3 °F 88% 29.65 in 10.0 mi NNE 9.2 mph - N/A   Mostly Cloudy
8:34 PM 67.1 °F 63.0 °F 87% 29.65 in 10.0 mi NNE 8.1 mph - N/A   Mostly Cloudy
8:54 PM 66.4 °F 62.6 °F 88% 29.66 in 10.0 mi NNE 10.4 mph - N/A   Mostly Cloudy
9:14 PM 66.4 °F 62.1 °F 86% 29.66 in 10.0 mi NNE 5.8 mph - N/A   Overcast
9:34 PM 66.6 °F 61.9 °F 85% 29.66 in 10.0 mi NE 5.8 mph - N/A   Overcast
9:54 PM 66.6 °F 61.9 °F 85% 29.67 in 0.5 mi NNE 4.6 mph - N/A   Haze
10:14 PM 64.0 °F 61.9 °F 93% 29.67 in 10.0 mi North 3.5 mph - N/A   Overcast
10:34 PM 64.4 °F 62.6 °F 94% 29.67 in 10.0 mi Calm Calm - N/A   Overcast
10:54 PM 64.4 °F 62.6 °F 94% 29.67 in 10.0 mi NNE 4.6 mph - N/A   Overcast
11:14 PM 65.7 °F 62.2 °F 89% 29.67 in 10.0 mi NNE 4.6 mph - N/A   Overcast
11:34 PM 65.5 °F 62.2 °F 89% 29.67 in 10.0 mi NE 4.6 mph - N/A   Overcast
11:55 PM 64.9 °F 62.8 °F 93% 29.67 in 10.0 mi NNE 4.6 mph - N/A   Overcast